Regional Weather Roundup
Issued by NWS

Home | Current Version | Previous Version | Graphics & Text | Print | Product List | Glossary On
Versions: 1 2 3 4 5 6 7 8 9 10 11 12 13 14 15 16 17 18 19 20 21 22 23 24 25 26 27
000
ASUS45 KTFX 170010
RWRMT
MONTANA REGIONAL WEATHER ROUNDUP
NATIONAL WEATHER SERVICE GREAT FALLS MT
600 PM MDT WED AUG 16 2017

NOTE: "FAIR" INDICATES FEW OR NO CLOUDS BELOW 12000 FEET WITH NO
SIGNIFICANT WEATHER AND/OR OBSTRUCTIONS TO VISIBILITY.

MTZ001>007-043-170100-
WEST OF THE DIVIDE

CITY           SKY/WX    TMP DP  RH WIND       PRES   REMARKS
KALISPELL      SUNNY     81  37  20 S12       29.91F
MISSOULA       SUNNY     85  31  14 NW13      29.93F
BUTTE          CLOUDY    79  31  17 NW12      30.05S
MULLAN PASS    SUNNY     68  34  28 MISG      30.13F
ANACONDA         N/A     75  37  25 N8        30.02R
DEER LODGE       N/A     79  30  17 NW14G21   30.01F
EUREKA           N/A     84  36  17 MISG      29.89S
HAMILTON         N/A     81  34  18 W7        29.96F
LIBBY            N/A     84  37  18 W5        29.90S
PLAINS           N/A     84  39  20 S8        29.94F
RONAN            N/A     84  36  18 SW8       29.99F
$$

MTZ008-052>055-170100-
SOUTHWEST MONTANA

CITY           SKY/WX    TMP DP  RH WIND       PRES   REMARKS
BOZEMAN        SUNNY     83  38  20 NW7       29.96F
DILLON         SUNNY     77  41  27 W16       30.00S
W YELLOWSTONE  CLOUDY    73  30  20 SW14G21   30.14F
ENNIS          CLOUDY    79  32  18 CALM      30.07S
$$

MTZ009-010-012-014-046-048-049-054-170100-
EAST SLOPES AND CENTRAL MONTANA

CITY           SKY/WX    TMP DP  RH WIND       PRES   REMARKS
CUT BANK       MOSUNNY   81  31  16 SW12      29.92S
GREAT FALLS    CLOUDY    85  24  11 NW10G21   29.91S
MALMSTROM AFB  PTSUNNY   83  26  12 NW12      29.90F
HELENA         MOSUNNY   85  31  14 NW16      29.92S HAZE
AUGUSTA          N/A     81  24  12 W14G21    29.95S
BOWMANS CRNR     N/A     79  25  13 W8        29.93F
CHOTEAU          N/A     82  27  13 VRB3      29.94S
FAIRFIELD        N/A     82  26  12 N8        29.91F
POWER            N/A     81  26  13 W7        29.91F
RAYNESFORD       N/A     81  22  11 W14G21    29.93S
ULM              N/A     83  25  11 SW17G25   29.91F
$$

MTZ011-013-016-021-045-047-050-051-170100-
NORTH CENTRAL MONTANA

CITY           SKY/WX    TMP DP  RH WIND       PRES   REMARKS
HAVRE          SUNNY     86  29  12 W10       29.83S
LEWISTOWN      SUNNY     82  27  13 NW6       29.93F
N BAR RANCH      N/A     81  25  12 NW10G17   29.97F
CHINOOK          N/A     86  32  14 W9        29.82F
DENTON           N/A     81  26  13 NW12      29.87F
GRASS RANGE      N/A     83  26  12 W8        29.88F
JUDITH GAP       N/A     80  28  14 N14G21    29.95F
WINIFRED         N/A     81  25  12 N10       29.90F
$$

MTZ017>020-022>027-061-062-170100-
NORTHEAST MONTANA

CITY           SKY/WX    TMP DP  RH WIND       PRES   REMARKS
GLASGOW        CLOUDY    88  41  19 S6        29.79F
JORDAN           N/A     89  28  11 W8        29.82F
SIDNEY         SUNNY     84  53  34 SE6       29.85F
WOLF POINT     SUNNY     88  43  20 E14       29.81F
MALTA          SUNNY     86  34  15 W9        29.81F
PLENTYWOOD       N/A     82  45  26 CALM      29.85F
POPLAR           N/A     82  45  26 E7        29.83F
SCOBEY           N/A     75  51  42 E12       29.87
$$

MTZ028>42-056>058-170100-
SOUTHCENTRAL AND SOUTHEAST MONTANA

CITY           SKY/WX    TMP DP  RH WIND       PRES   REMARKS
BAKER          PTSUNNY   83  41  22 S14       29.92F
BILLINGS       MOSUNNY   88  34  14 W13       29.89F
LIVINGSTON     MOSUNNY   81  41  24 SW16      29.96S
MILES CITY     MOSUNNY   88  38  17 S13       29.84F
BIG TIMBER     SUNNY     82  32  16 NW12G21   29.97S
EKALAKA          N/A     78  41  26 SE7       29.94
FORSYTH          N/A     90  36  14 W3        29.83F
HARLOWTON        N/A     83  27  13 MISG      29.95S
LAUREL           N/A     87  41  19 S9        29.91R
$$

REGIONAL REPORTS...DAKOTAS

CITY           SKY/WX    TMP DP  RH WIND       PRES   REMARKS
WILLISTON      SUNNY     82  52  35 SE5       29.87F
MINOT          SUNNY     79  51  37 N6        29.89F
DICKINSON      SUNNY     80  50  34 CALM      29.91F
BEACH          CLOUDY    77  48  36 SE10      29.94F
CROSBY           N/A     81  46  30 VRB5      29.87F
TIOGA            N/A     77  50  38 SE9       29.91F
WATFORD CITY     N/A     81  48  32 SE6       29.88F
BISMARCK       PTSUNNY   78  52  40 N10       29.90S
GRAND FORKS    CLOUDY    69  65  86 N9        29.82F
FARGO          LGT RAIN  67  66  97 N10       29.81S
BUFFALO SD       N/A     81  45  28 E3        29.89F
RAPID CITY     SUNNY     79  46  31 N12       29.97F
$$

REGIONAL REPORTS...WYOMING/IDAHO/WASHINGTON

CITY           SKY/WX    TMP DP  RH WIND       PRES   REMARKS
GILLETTE       SUNNY     81  27  14 S3        30.00F
SHERIDAN       SUNNY     84  37  18 SE12      29.95F
BUFFALO WY     SUNNY     78  33  19 S12       30.04S
YELLOWSTONE LA   N/A     65  30  27 VRB3      30.25S
IDAHO FALLS    SUNNY     83  34  17 S13G20    30.03F
SALMON         SUNNY     84  41  21 N6        29.94F
BOISE          SUNNY     88  37  16 NW9       29.95F
SPOKANE        MOSUNNY   83  38  20 SW14G22   29.95F
$$

REGIONAL REPORTS...ALBERTA

CITY           SKY/WX    TMP DP  RH WIND       PRES   REMARKS
EDMONTON       PTSUNNY   70  52  52 NW3       29.84S
CALGARY        CLOUDY    79  36  21 VRB5      29.86S SMOKE
LETHBRIDGE     PTSUNNY   82  36  18 W14G23    29.84S
MEDICINE HAT   PTSUNNY   82  36  18 W12       29.82S
$$

REGIONAL REPORTS...SASKATCHEWAN

CITY           SKY/WX    TMP DP  RH WIND       PRES   REMARKS
SWIFT CURRENT  PTSUNNY   79  46  31 E10       29.83S
REGINA         MOSUNNY   79  39  24 NE7       29.86F
SASKATOON      MOSUNNY   73  43  33 N3        29.87S
$$




USA.gov is the U.S. government's official web portal to all federal, state and local government web resources and services.